This is the latest recevied weather packets stored in our database for station/object N4NVD-13. If no packets are shown the sender has not sent any weather packets the latest 1 day(s).
| Time | Temp. | Humidity | Pressure | Rain* | Wind** | Luminosity | Snow |
|---|---|---|---|---|---|---|---|
| 1778021027 | 28.89° C | 80% | 1005 hPa | 0 mm | 0.89 m/s, 188° | 191 W/m² | - |
| 1778020724 | 29.44° C | 80% | 1004.9 hPa | 0 mm | 1.34 m/s, 202° | 269 W/m² | - |
| 1778020421 | 28.89° C | 80% | 1004.8 hPa | 0 mm | 1.79 m/s, 195° | 325 W/m² | - |
| 1778020116 | 28.89° C | 80% | 1004.8 hPa | 0 mm | 2.24 m/s, 183° | 152 W/m² | - |
| 1778019813 | 29.44° C | 80% | 1005 hPa | 0 mm | 2.24 m/s, 213° | 256 W/m² | - |
| 1778019510 | 28.89° C | 80% | 1004.9 hPa | 0 mm | 3.13 m/s, 219° | 164 W/m² | - |
| 1778019207 | 29.44° C | 79% | 1005 hPa | 0 mm | 2.24 m/s, 233° | 329 W/m² | - |
| 1778018904 | 29.44° C | 80% | 1004.8 hPa | 0 mm | 1.34 m/s, 191° | 231 W/m² | - |
| 1778018601 | 30° C | 80% | 1005.1 hPa | 0 mm | 2.68 m/s, 212° | 241 W/m² | - |
| 1778018299 | 29.44° C | 80% | 1004.9 hPa | 0 mm | 1.34 m/s, 229° | 210 W/m² | - |
| 1778017996 | 28.89° C | 81% | 1005 hPa | 0 mm | 3.13 m/s, 216° | 261 W/m² | - |
| 1778017694 | 28.89° C | 81% | 1005.1 hPa | 0 mm | 0.89 m/s, 232° | 306 W/m² | - |
| 1778017391 | 29.44° C | 80% | 1005.1 hPa | 0 mm | 4.02 m/s, 222° | 399 W/m² | - |
| 1778017088 | 30° C | 79% | 1004.8 hPa | 0 mm | 0.89 m/s, 210° | 328 W/m² | - |
| 1778016786 | 28.89° C | 81% | 1005.3 hPa | 0 mm | 1.34 m/s, 225° | 489 W/m² | - |
| 1778016481 | 28.89° C | 81% | 1005.3 hPa | 0 mm | 2.68 m/s, 242° | 251 W/m² | - |
| 1778016179 | 29.44° C | 80% | 1005.3 hPa | 0 mm | 1.34 m/s, 198° | 254 W/m² | - |
| 1778015875 | 28.89° C | 82% | 1005 hPa | 0 mm | 2.24 m/s, 205° | 511 W/m² | - |
| 1778015573 | 28.89° C | 82% | 1005.3 hPa | 0 mm | 3.58 m/s, 217° | 239 W/m² | - |
| 1778015269 | 28.89° C | 81% | 1005.5 hPa | 0 mm | 2.24 m/s, 144° | 378 W/m² | - |
| 1778014966 | 28.89° C | 81% | 1005.9 hPa | 0 mm | 2.68 m/s, 204° | 450 W/m² | - |
| 1778014663 | 28.89° C | 81% | 1005.8 hPa | 0 mm | 2.68 m/s, 225° | 561 W/m² | - |
| 1778014362 | 29.44° C | 81% | 1005.9 hPa | 0 mm | 0.89 m/s, 148° | 262 W/m² | - |
| 1778014058 | 29.44° C | 80% | 1006 hPa | 0 mm | 0 m/s | 297 W/m² | - |
| 1778013756 | 28.89° C | 80% | 1005.9 hPa | 0 mm | 1.34 m/s, 227° | 608 W/m² | - |
* Rain latest hour (hover to see other rain measurements)
** Current wind speed in m/s (hover to see current wind gust speed)